TimeCST,TemperatureF,Dew PointF,Humidity,Sea Level PressureIn,VisibilityMPH,Wind Direction,Wind SpeedMPH,Gust SpeedMPH,PrecipitationIn,Events,Conditions,WindDirDegrees,DateUTC
12:53 AM,33.1,21.9,64,30.14,10.0,SW,11.5,18.4,N/A,,Overcast,230,2012-12-12 06:53:00
1:53 AM,32.0,23.0,69,30.17,10.0,SW,5.8,-,N/A,,Overcast,230,2012-12-12 07:53:00
2:53 AM,32.0,23.0,69,30.19,10.0,Calm,Calm,-,N/A,,Overcast,0,2012-12-12 08:53:00
3:53 AM,30.0,23.0,75,30.19,10.0,SW,5.8,-,N/A,,Overcast,220,2012-12-12 09:53:00
4:53 AM,28.0,21.9,78,30.20,10.0,SW,4.6,-,N/A,,Partly Cloudy,220,2012-12-12 10:53:00
5:53 AM,28.0,21.0,75,30.21,10.0,SW,6.9,-,N/A,,Clear,220,2012-12-12 11:53:00
6:53 AM,28.0,21.0,75,30.23,10.0,SW,9.2,-,N/A,,Clear,230,2012-12-12 12:53:00
7:53 AM,28.9,21.0,72,30.24,10.0,SW,11.5,-,N/A,,Clear,230,2012-12-12 13:53:00
8:53 AM,33.1,21.9,64,30.25,10.0,WSW,11.5,-,N/A,,Clear,240,2012-12-12 14:53:00
9:53 AM,37.0,23.0,57,30.27,10.0,SW,10.4,-,N/A,,Clear,220,2012-12-12 15:53:00
10:53 AM,39.9,24.1,53,30.27,10.0,SW,11.5,-,N/A,,Clear,220,2012-12-12 16:53:00
11:53 AM,43.0,23.0,45,30.25,10.0,SW,16.1,21.9,N/A,,Clear,230,2012-12-12 17:53:00
12:53 PM,45.0,23.0,42,30.25,10.0,SW,10.4,21.9,N/A,,Clear,220,2012-12-12 18:53:00
1:53 PM,46.0,21.9,39,30.22,10.0,SSW,17.3,23.0,N/A,,Clear,200,2012-12-12 19:53:00
2:53 PM,44.1,21.9,42,30.22,10.0,SSW,15.0,26.5,N/A,,Clear,200,2012-12-12 20:53:00
3:53 PM,43.0,23.0,45,30.24,10.0,SSW,10.4,-,N/A,,Clear,200,2012-12-12 21:53:00
4:53 PM,39.9,24.1,53,30.25,10.0,South,8.1,-,N/A,,Clear,190,2012-12-12 22:53:00
5:53 PM,39.9,24.1,53,30.25,10.0,South,10.4,-,N/A,,Clear,180,2012-12-12 23:53:00
6:53 PM,39.0,24.1,55,30.25,10.0,South,10.4,-,N/A,,Clear,180,2012-12-13 00:53:00
7:53 PM,37.9,26.1,62,30.25,10.0,South,15.0,20.7,N/A,,Clear,190,2012-12-13 01:53:00
8:53 PM,37.0,26.1,65,30.24,10.0,South,13.8,-,N/A,,Clear,190,2012-12-13 02:53:00
9:53 PM,37.0,26.1,65,30.25,10.0,SSW,12.7,-,N/A,,Clear,200,2012-12-13 03:53:00
10:53 PM,36.0,26.1,67,30.25,10.0,SSW,16.1,-,N/A,,Clear,200,2012-12-13 04:53:00
11:53 PM,36.0,26.1,67,30.25,10.0,SSW,13.8,-,N/A,,Clear,210,2012-12-13 05:53:00